TimeEST,TemperatureF,Dew PointF,Humidity,Sea Level PressureIn,VisibilityMPH,Wind Direction,Wind SpeedMPH,Gust SpeedMPH,PrecipitationIn,Events,Conditions,WindDirDegrees,DateUTC
12:53 AM,44.1,34.0,68,30.17,10.0,Calm,Calm,-,N/A,,Clear,0,2012-11-23 05:53:00
1:53 AM,45.0,34.0,65,30.16,10.0,Calm,Calm,-,N/A,,Clear,0,2012-11-23 06:53:00
2:53 AM,43.0,34.0,71,30.15,10.0,Calm,Calm,-,N/A,,Clear,0,2012-11-23 07:53:00
3:53 AM,41.0,34.0,76,30.14,10.0,Calm,Calm,-,N/A,,Clear,0,2012-11-23 08:53:00
4:53 AM,39.9,34.0,79,30.14,10.0,Calm,Calm,-,N/A,,Clear,0,2012-11-23 09:53:00
5:53 AM,37.0,32.0,82,30.14,10.0,West,3.5,-,N/A,,Clear,260,2012-11-23 10:53:00
6:53 AM,39.0,33.1,79,30.13,10.0,Calm,Calm,-,N/A,,Clear,0,2012-11-23 11:53:00
7:53 AM,37.9,34.0,86,30.14,10.0,WSW,3.5,-,N/A,,Clear,240,2012-11-23 12:53:00
8:53 AM,46.0,37.0,71,30.13,10.0,Calm,Calm,-,N/A,,Clear,0,2012-11-23 13:53:00
9:53 AM,54.0,37.9,55,30.12,10.0,Calm,Calm,-,N/A,,Clear,0,2012-11-23 14:53:00
10:53 AM,57.9,39.0,49,30.11,10.0,WSW,5.8,-,N/A,,Clear,240,2012-11-23 15:53:00
11:53 AM,62.1,37.0,39,30.07,10.0,West,6.9,-,N/A,,Clear,260,2012-11-23 16:53:00
12:53 PM,66.0,37.9,36,30.02,10.0,SSW,8.1,-,N/A,,Clear,210,2012-11-23 17:53:00
1:53 PM,66.0,35.1,32,29.99,10.0,SW,11.5,-,N/A,,Clear,230,2012-11-23 18:53:00
2:53 PM,71.1,37.9,30,29.96,10.0,SW,9.2,-,N/A,,Clear,230,2012-11-23 19:53:00
3:53 PM,69.1,41.0,36,29.96,10.0,SW,8.1,-,N/A,,Clear,230,2012-11-23 20:53:00
4:53 PM,66.9,42.1,40,29.96,10.0,SSW,9.2,-,N/A,,Overcast,210,2012-11-23 21:53:00
5:53 PM,66.9,43.0,42,29.96,10.0,West,8.1,-,N/A,,Overcast,260,2012-11-23 22:53:00
6:53 PM,64.9,46.0,50,29.96,10.0,West,15.0,23.0,N/A,,Mostly Cloudy,260,2012-11-23 23:53:00
7:53 PM,61.0,46.0,58,29.98,10.0,West,9.2,17.3,N/A,,Clear,270,2012-11-24 00:53:00
8:53 PM,59.0,35.1,41,29.99,10.0,NW,5.8,-,N/A,,Clear,320,2012-11-24 01:53:00
9:53 PM,54.0,39.0,57,29.99,10.0,NNW,4.6,-,N/A,,Clear,340,2012-11-24 02:53:00
10:53 PM,52.0,32.0,47,30.00,10.0,North,6.9,-,N/A,,Clear,350,2012-11-24 03:53:00
11:53 PM,50.0,28.0,43,30.00,10.0,North,5.8,-,N/A,,Clear,360,2012-11-24 04:53:00